• în România
  • Lista ţărilor
  • Pe 7 zile
  • Temperatura apei
  • Hartă satelitară
  • Meteo pe hartă
  • Widget-uri
  • user-avatar
    Intrare

    Meteo pe oră la Yulara

    Astăzi, 21 Iulie, Sâmbătă

    Timp Temperatura Precipitaţii Vânt Presiune Umiditate
    00:00 +12°C° 0 mm 4 m/s 721 mmHg 43%
    01:00 +11°C° 0 mm 4 m/s 721 mmHg 44%
    02:00 +10°C° 0 mm 4 m/s 721 mmHg 46%
    03:00 +10°C° 0 mm 4 m/s 720 mmHg 48%
    04:00 +8°C° 0 mm 4 m/s 720 mmHg 50%
    05:00 +9°C° 0 mm 3 m/s 721 mmHg 52%
    06:00 +8°C° 0 mm 3 m/s 721 mmHg 54%
    07:00 +10°C° 0 mm 3 m/s 721 mmHg 49%
    08:00 +13°C° 0 mm 2 m/s 721 mmHg 45%
    09:00 +14°C° 0 mm 2 m/s 721 mmHg 40%
    10:00 +17°C° 0 mm 3 m/s 721 mmHg 35%
    11:00 +20°C° 0 mm 3 m/s 721 mmHg 30%
    12:00 +22°C° 0 mm 4 m/s 721 mmHg 25%
    13:00 +23°C° 0 mm 4 m/s 720 mmHg 23%
    14:00 +25°C° 0 mm 5 m/s 719 mmHg 21%
    15:00 +26°C° 0 mm 5 m/s 719 mmHg 19%
    16:00 +23°C° 0 mm 4 m/s 719 mmHg 22%
    17:00 +21°C° 0 mm 4 m/s 718 mmHg 26%
    18:00 +19°C° 0 mm 3 m/s 718 mmHg 29%
    19:00 +18°C° 0 mm 3 m/s 718 mmHg 31%
    20:00 +17°C° 0 mm 2 m/s 719 mmHg 33%
    21:00 +16°C° 0 mm 1 m/s 719 mmHg 35%
    22:00 +16°C° 0 mm 1 m/s 719 mmHg 36%
    23:00 +16°C° 0 mm 1 m/s 719 mmHg 36%

    Mâine, 22 Iulie, Duminică

    Timp Temperatura Precipitaţii Vânt Presiune Umiditate
    00:00 +15°C° 0 mm 2 m/s 719 mmHg 37%
    01:00 +15°C° 0 mm 2 m/s 719 mmHg 37%
    02:00 +15°C° 0 mm 2 m/s 719 mmHg 36%
    03:00 +14°C° 0 mm 3 m/s 719 mmHg 36%
    04:00 +14°C° 0 mm 3 m/s 719 mmHg 37%
    05:00 +13°C° 0 mm 3 m/s 719 mmHg 38%
    06:00 +13°C° 0 mm 3 m/s 718 mmHg 39%
    07:00 +14°C° 0 mm 3 m/s 719 mmHg 35%
    08:00 +17°C° 0 mm 3 m/s 719 mmHg 31%
    09:00 +19°C° 0 mm 4 m/s 720 mmHg 27%
    10:00 +22°C° 0 mm 5 m/s 719 mmHg 24%
    11:00 +24°C° 0 mm 6 m/s 719 mmHg 20%
    12:00 +28°C° 0 mm 7 m/s 719 mmHg 16%
    13:00 +28°C° 0 mm 7 m/s 718 mmHg 16%
    14:00 +29°C° 0 mm 7 m/s 718 mmHg 15%
    15:00 +30°C° 0 mm 7 m/s 717 mmHg 14%
    16:00 +28°C° 0 mm 6 m/s 717 mmHg 16%
    17:00 +26°C° 0 mm 5 m/s 717 mmHg 18%
    18:00 +23°C° 0 mm 4 m/s 716 mmHg 19%
    19:00 +22°C° 0 mm 4 m/s 717 mmHg 21%
    20:00 +21°C° 0 mm 5 m/s 717 mmHg 22%
    21:00 +20°C° 0 mm 5 m/s 717 mmHg 23%
    22:00 +19°C° 0 mm 5 m/s 717 mmHg 24%
    23:00 +19°C° 0 mm 5 m/s 717 mmHg 25%

    Poimâine, 23 Iulie, Luni

    Timp Temperatura Precipitaţii Vânt Presiune Umiditate
    00:00 +17°C° 0 mm 5 m/s 717 mmHg 26%
    01:00 +16°C° 0 mm 5 m/s 717 mmHg 27%
    02:00 +16°C° 0 mm 5 m/s 717 mmHg 28%
    03:00 +15°C° 0 mm 5 m/s 717 mmHg 29%
    04:00 +15°C° 0 mm 5 m/s 717 mmHg 30%
    05:00 +14°C° 0 mm 5 m/s 716 mmHg 31%
    06:00 +14°C° 0 mm 5 m/s 716 mmHg 32%
    07:00 +16°C° 0 mm 6 m/s 717 mmHg 29%
    08:00 +17°C° 0 mm 7 m/s 718 mmHg 26%
    09:00 +20°C° 0 mm 8 m/s 718 mmHg 24%
    10:00 +22°C° 0 mm 7 m/s 718 mmHg 24%
    11:00 +24°C° 0 mm 7 m/s 718 mmHg 25%
    12:00 +26°C° 0 mm 6 m/s 718 mmHg 26%
    13:00 +26°C° 0 mm 6 m/s 718 mmHg 28%
    14:00 +27°C° 0 mm 6 m/s 717 mmHg 29%
    15:00 +27°C° 0 mm 5 m/s 717 mmHg 30%
    16:00 +25°C° 0 mm 5 m/s 717 mmHg 34%
    17:00 +23°C° 0 mm 4 m/s 717 mmHg 38%
    18:00 +22°C° 0 mm 4 m/s 717 mmHg 42%
    19:00 +21°C° 0 mm 4 m/s 718 mmHg 44%
    20:00 +20°C° 0 mm 4 m/s 718 mmHg 47%
    21:00 +19°C° 0 mm 4 m/s 719 mmHg 50%
    22:00 +18°C° 0 mm 4 m/s 719 mmHg 52%
    23:00 +17°C° 0 mm 3 m/s 719 mmHg 53%

    24 Iulie, Marţi

    Timp Temperatura Precipitaţii Vânt Presiune Umiditate
    00:00 +16°C° 0 mm 3 m/s 719 mmHg 55%
    01:00 +16°C° 0 mm 3 m/s 719 mmHg 56%
    02:00 +14°C° 0 mm 3 m/s 718 mmHg 57%
    03:00 +13°C° 0 mm 3 m/s 718 mmHg 58%
    04:00 +13°C° 0 mm 3 m/s 718 mmHg 59%
    05:00 +13°C° 0 mm 3 m/s 719 mmHg 59%
    06:00 +13°C° 0 mm 3 m/s 719 mmHg 60%
    07:00 +14°C° 0 mm 4 m/s 720 mmHg 56%
    08:00 +15°C° 0 mm 5 m/s 720 mmHg 52%
    09:00 +17°C° 0 mm 5 m/s 721 mmHg 49%
    10:00 +19°C° 0 mm 5 m/s 720 mmHg 46%
    11:00 +20°C° 0 mm 5 m/s 720 mmHg 43%
    12:00 +22°C° 0 mm 5 m/s 720 mmHg 41%
    13:00 +22°C° 0 mm 5 m/s 719 mmHg 41%
    14:00 +22°C° 0 mm 4 m/s 719 mmHg 40%
    15:00 +22°C° 0 mm 3 m/s 718 mmHg 40%
    16:00 +21°C° 0 mm 3 m/s 718 mmHg 43%
    17:00 +20°C° 0 mm 3 m/s 718 mmHg 46%
    18:00 +19°C° 0 mm 2 m/s 718 mmHg 48%
    19:00 +19°C° 0 mm 2 m/s 719 mmHg 51%
    20:00 +18°C° 0 mm 2 m/s 719 mmHg 53%
    21:00 +17°C° 0 mm 2 m/s 720 mmHg 55%
    22:00 +17°C° 0 mm 2 m/s 720 mmHg 57%
    23:00 +16°C° 0 mm 3 m/s 720 mmHg 59%

    25 Iulie, Miercuri

    Timp Temperatura Precipitaţii Vânt Presiune Umiditate
    00:00 +16°C° 0 mm 3 m/s 719 mmHg 61%
    01:00 +14°C° 0 mm 3 m/s 719 mmHg 63%
    02:00 +14°C° 0 mm 3 m/s 719 mmHg 66%
    03:00 +13°C° 0 mm 3 m/s 719 mmHg 68%
    04:00 +12°C° 0 mm 3 m/s 719 mmHg 68%
    05:00 +12°C° 0 mm 3 m/s 719 mmHg 68%
    06:00 +12°C° 0 mm 4 m/s 719 mmHg 69%
    07:00 +13°C° 0 mm 4 m/s 719 mmHg 62%
    08:00 +15°C° 0 mm 4 m/s 720 mmHg 56%
    09:00 +17°C° 0 mm 4 m/s 720 mmHg 49%
    10:00 +19°C° 0 mm 4 m/s 720 mmHg 43%
    11:00 +22°C° 0 mm 4 m/s 720 mmHg 37%
    12:00 +25°C° 0 mm 3 m/s 719 mmHg 30%
    13:00 +26°C° 0 mm 4 m/s 719 mmHg 28%
    14:00 +27°C° 0 mm 5 m/s 718 mmHg 25%
    15:00 +28°C° 0 mm 5 m/s 717 mmHg 23%
    16:00 +26°C° 0 mm 4 m/s 717 mmHg 26%
    17:00 +25°C° 0 mm 4 m/s 717 mmHg 29%
    18:00 +22°C° 0 mm 3 m/s 717 mmHg 32%
    19:00 +21°C° 0 mm 3 m/s 718 mmHg 34%
    20:00 +21°C° 0 mm 2 m/s 718 mmHg 36%
    21:00 +20°C° 0 mm 2 m/s 718 mmHg 38%
    22:00 +20°C° 0 mm 1 m/s 718 mmHg 41%
    23:00 +18°C° 0 mm 1 m/s 718 mmHg 44%

    26 Iulie, Joi

    Timp Temperatura Precipitaţii Vânt Presiune Umiditate
    00:00 +16°C° 0 mm 1 m/s 717 mmHg 47%
    01:00 +16°C° 0 mm 1 m/s 717 mmHg 48%
    02:00 +16°C° 0 mm 1 m/s 717 mmHg 49%
    03:00 +15°C° 0 mm 1 m/s 717 mmHg 50%
    04:00 +15°C° 0 mm 2 m/s 717 mmHg 50%
    05:00 +15°C° 0 mm 2 m/s 717 mmHg 50%
    06:00 +15°C° 0 mm 2 m/s 717 mmHg 50%
    07:00 +17°C° 0 mm 3 m/s 718 mmHg 43%
    08:00 +19°C° 0 mm 4 m/s 718 mmHg 35%
    09:00 +21°C° 0 mm 5 m/s 719 mmHg 28%
    10:00 +23°C° 0 mm 6 m/s 718 mmHg 24%
    11:00 +26°C° 0 mm 8 m/s 718 mmHg 20%
    12:00 +28°C° 0 mm 9 m/s 718 mmHg 16%
    13:00 +29°C° 0 mm 9 m/s 717 mmHg 16%
    14:00 +29°C° 0 mm 9 m/s 717 mmHg 16%
    15:00 +31°C° 0 mm 9 m/s 717 mmHg 16%
    16:00 +28°C° 0 mm 8 m/s 717 mmHg 18%
    17:00 +27°C° 0 mm 6 m/s 717 mmHg 21%
    18:00 +25°C° 0 mm 5 m/s 717 mmHg 23%
    19:00 +22°C° 0 mm 4 m/s 717 mmHg 25%
    20:00 +21°C° 0 mm 4 m/s 718 mmHg 28%
    21:00 +20°C° 0 mm 4 m/s 718 mmHg 30%
    22:00 +19°C° 0 mm 4 m/s 718 mmHg 35%
    23:00 +18°C° 0 mm 3 m/s 718 mmHg 39%
    Arată mai mult